User: anonymous   Login
Location: Biharia
(46.4333°N, 22.8000°E)
Time: 13:00:00
(UTC+00:00)
Language:

Cosmos 494 Rocket - Orbit

View from above orbital plane
View from above orbital plane
View from above satellite
View from above satellite

Ground track
Ground track

The orbit data is extracted from the following two-line orbital elements,

1  6061U 72043B   22273.09799123  .00000207  00000-0  72938-4 0  9997
2  6061  74.0569 213.4356 0020849 221.7207 138.2360 14.40743556636360
Epoch (UTC): 30 September 2022 02:21:06
Eccentricity: 0.0020849
inclination: 74.0569°
perigee height: 741 km
apogee height: 771 km
right ascension of ascending node: 213.4356°
argument of perigee: 221.7207°
revolutions per day: 14.40743556
mean anomaly at epoch: 138.2360°
orbit number at epoch: 63636

The dashed part of the orbit path shows where the satellite is in the earth's shadow,  

DLR